Location: Dötzum
(52.0808°N, 9.8063°E)
Time: 04:06:34
(UTC+00:00)

CZ-2D R/B - Pass Details

Date: 27 May 2022
Orbit: 791 x 845 km, 98.7° (Epoch: 24 June)

Event Time Altitude Azimuth Distance (km) Brightness Sun altitude
Rises 00:29:10 0° 19° (NNE) 3,384 7.3 -15.0°
Reaches altitude 10° 00:31:42 10° 27° (NNE) 2,438 6.0 -14.9°
Maximum altitude 00:36:47 41° 97° (E) 1,168 3.0 -14.7°
Enters shadow 00:40:54 15° 164° (SSE) 2,081 3.8 -14.4°
